This demonstration page uses our WeatherBlox Daily Observations layout. Learn more.

Left ArrowRight Arrow

41.86663, -103.66717

Hourly Observations for May 19, 2022

Temp ( °F °C ) Dew Point ( °F °C ) Humidity (%) Winds ( mph kmh ) Pressure ( in mb ) Visibility ( mi km ) Precip ( " mm )
12:53 am 00:53 Clear 59 15 39 3.9 48 48 E 8 13 29.62 1003 10 16 0.00 0.00
1:53 am 01:53 Clear 57 13.9 39 3.9 51 51 E 7 11 29.59 1002 10 16 0.00 0.00
2:53 am 02:53 Clear 54 12.2 39 3.9 57 57 E 6 9 29.55 1001 10 16 0.00 0.00
3:53 am 03:53 Clear 68 20 29 -1.7 23 23 W 13 20 29.50 999 10 16 0.00 0.00
4:53 am 04:53 Clear 65 18.3 30 -1.1 27 27 W 10 17 29.48 998 10 16 0.00 0.00
5:53 am 05:53 Sunny 71 21.7 28 -2.2 20 20 WSW 20 31 29.44 997 10 16 0.00 0.00
6:53 am 06:53 Sunny 72 22.2 30 -1.1 21 21 SW 14 22 29.44 997 10 16 0.00 0.00
7:53 am 07:53 Sunny 74 23.3 30 -1.1 20 20 WSW 14 22 29.44 997 10 16 0.00 0.00
8:53 am 08:53 Sunny 78 25.6 32 0 19 19 SW 20 31 29.42 996 10 16 0.00 0.00
9:53 am 09:53 Sunny 78 25.6 34 1.1 20 20 W 22 35 29.40 996 10 16 0.00 0.00
10:53 am 10:53 Sunny 79 26.1 33 0.6 19 19 W 31 50 29.38 995 10 16 0.00 0.00
11:53 am 11:53 Sunny 83 28.3 33 0.6 17 17 W 28 44 29.33 993 10 16 0.00 0.00
12:53 pm 12:53 Sunny 84 28.9 32 0 15 15 W 26 43 29.31 993 10 16 0.00 0.00
1:48 pm 13:48 Partly Cloudy 79 26 45 7 30 30 N 20 31 29.17 988 10 16 0.00 0.00
1:53 pm 13:53 Mostly Sunny 80 26.7 43 6.1 27 27 N 17 28 29.30 992 10 16 0.00 0.00
2:00 pm 14:00 Mostly Sunny 79 26 43 6 28 28 N 23 37 29.17 988 10 16 0.00 0.00
2:53 pm 14:53 Mostly Sunny 71 21.7 43 6.1 36 36 N 25 41 29.33 993 10 16 0.00 0.00
3:53 pm 15:53 Mostly Sunny 66 18.9 39 3.9 37 37 N 30 48 29.34 994 10 16 0.00 0.00
4:53 pm 16:53 Mostly Sunny 61 16.1 36 2.2 39 39 N 26 43 29.38 995 10 16 0.00 0.00
5:53 pm 17:53 Sunny 54 12.2 33 0.6 45 45 NNW 28 44 29.46 998 10 16 0.00 0.00
6:53 pm 18:53 Partly Cloudy 48 8.9 32 0 54 54 N 23 37 29.50 999 10 16 0.00 0.00
7:53 pm 19:53 Partly Cloudy 43 6.1 33 0.6 68 68 N 24 39 29.55 1001 10 16 0.00 0.00
8:53 pm 20:53 Mostly Cloudy 42 5.6 33 0.6 71 71 N 13 20 29.56 1001 10 16 0.00 0.00
9:53 pm 21:53 Cloudy 41 5 36 2.2 82 82 NW 14 22 29.59 1002 10 16 0.00 0.00
10:20 pm 22:20 Cloudy with Light Rain 39 4 36 2 87 87 NW 9 15 29.70 1006 10 16 0.00 0.00
10:35 pm 22:35 Cloudy with Light Rain 40 4.4 36 2.2 86 86 W 7 11 29.70 1006 10 16 0.01 0.25
10:53 pm 22:53 Cloudy with Light Rain 40 4.4 36 2.2 86 86 W 13 20 29.62 1003 10 16 0.01 0.25
11:05 pm 23:05 Cloudy with Light Rain 39 3.9 35 1.7 86 86 W 8 13 29.72 1006 10 16 0.00 0.00
11:28 pm 23:28 Cloudy with Light Rain 38 3.3 35 1.7 89 89 WNW 14 22 29.71 1006 8 13 0.03 0.76
11:42 pm 23:42 Cloudy with Light Rain 38 3.3 35 1.7 89 89 W 10 17 29.69 1005 10 16 0.03 0.76
11:50 pm 23:50 Cloudy with Light Rain 37 3 36 2 93 93 W 12 19 29.69 1005 10 16 0.00 0.00
11:53 pm 23:53 Cloudy 38 3.3 35 1.7 89 89 W 10 17 29.53 1000 10 16 0.03 0.76

Powered by AerisWeather